TimeCST,TemperatureF,Dew PointF,Humidity,Sea Level PressureIn,VisibilityMPH,Wind Direction,Wind SpeedMPH,Gust SpeedMPH,PrecipitationIn,Events,Conditions,WindDirDegrees,DateUTC
12:49 AM,26.6,17.6,69,30.32,10.0,SSW,8.1,-,N/A,,Overcast,210,2013-02-02 06:49:00
12:56 AM,27.1,17.1,66,30.33,10.0,SSW,8.1,-,N/A,,Mostly Cloudy,210,2013-02-02 06:56:00
1:12 AM,26.6,17.6,69,30.31,10.0,SSW,8.1,-,N/A,,Mostly Cloudy,200,2013-02-02 07:12:00
1:56 AM,27.1,18.1,69,30.32,10.0,South,8.1,-,N/A,,Mostly Cloudy,190,2013-02-02 07:56:00
2:56 AM,28.0,19.0,69,30.30,10.0,South,8.1,-,N/A,,Scattered Clouds,190,2013-02-02 08:56:00
3:56 AM,28.0,20.1,72,30.27,10.0,South,10.4,-,N/A,,Mostly Cloudy,190,2013-02-02 09:56:00
4:56 AM,28.0,19.0,69,30.26,10.0,South,11.5,-,N/A,,Mostly Cloudy,190,2013-02-02 10:56:00
5:56 AM,29.1,20.1,69,30.23,10.0,South,9.2,-,N/A,,Overcast,170,2013-02-02 11:56:00
6:56 AM,30.0,20.1,67,30.20,10.0,South,8.1,-,N/A,,Overcast,180,2013-02-02 12:56:00
7:56 AM,31.1,21.0,66,30.20,10.0,SSW,10.4,-,N/A,,Mostly Cloudy,200,2013-02-02 13:56:00
8:56 AM,36.0,21.0,55,30.17,10.0,SSW,13.8,-,N/A,,Mostly Cloudy,210,2013-02-02 14:56:00
9:56 AM,34.9,22.1,60,30.15,10.0,SW,15.0,-,N/A,,Overcast,220,2013-02-02 15:56:00
10:56 AM,37.9,24.1,57,30.14,10.0,SW,12.7,-,N/A,,Overcast,230,2013-02-02 16:56:00
11:56 AM,38.8,23.0,53,30.10,10.0,WSW,13.8,-,N/A,,Mostly Cloudy,250,2013-02-02 17:56:00
12:56 PM,39.9,22.1,49,30.08,10.0,West,11.5,-,N/A,,Scattered Clouds,270,2013-02-02 18:56:00
1:56 PM,41.0,23.0,49,30.06,10.0,West,13.8,-,N/A,,Overcast,260,2013-02-02 19:56:00
2:56 PM,39.9,25.2,56,30.06,10.0,West,12.7,-,N/A,,Overcast,270,2013-02-02 20:56:00
3:56 PM,39.9,27.1,60,30.07,10.0,West,10.4,-,N/A,,Overcast,280,2013-02-02 21:56:00
4:56 PM,37.9,26.1,62,30.08,10.0,WNW,8.1,-,N/A,,Partly Cloudy,300,2013-02-02 22:56:00
6:56 PM,32.0,26.1,79,30.11,10.0,West,4.6,-,N/A,,Mostly Cloudy,270,2013-02-03 00:56:00
7:56 PM,31.1,26.1,82,30.12,10.0,West,6.9,-,N/A,,Partly Cloudy,260,2013-02-03 01:56:00
8:56 PM,32.0,26.1,79,30.12,10.0,West,6.9,-,N/A,,Scattered Clouds,260,2013-02-03 02:56:00
9:56 PM,34.0,27.1,76,30.12,10.0,WNW,8.1,-,N/A,,Scattered Clouds,300,2013-02-03 03:56:00
10:56 PM,32.0,27.1,82,30.12,10.0,Calm,Calm,-,N/A,,Mostly Cloudy,0,2013-02-03 04:56:00
11:56 PM,30.0,27.1,89,30.11,10.0,Calm,Calm,-,N/A,,Mostly Cloudy,0,2013-02-03 05:56:00